When you browse on this site, cookies collect data to enhance your experience and personalize the content and advertising you see.
Visit our Privacy Policy to learn more. By continuing to use the site, you agree to this use of cookies and data.
  • In Switzerland
  • List of Countries
  • For 7 days
  • Water Temperature
  • Satellite Maps
  • Weather Map
  • Weather Widgets
  • user-avatar
    Login

    Hourly Weather Laatzen

    Today, 18 July, Thursday

    Time Temperature Precipitation Wind Pressure Humidity
    00:00 +16°C° 0 mm 1 mps 754 mmHg 82%
    01:00 +14°C° 0 mm 0 mps 753 mmHg 85%
    02:00 +14°C° 0 mm 0 mps 753 mmHg 86%
    03:00 +13°C° 0 mm 0 mps 753 mmHg 88%
    04:00 +13°C° 0 mm 0 mps 753 mmHg 89%
    05:00 +14°C° 0 mm 0 mps 753 mmHg 85%
    06:00 +16°C° 0 mm 0 mps 753 mmHg 82%
    07:00 +17°C° 0 mm 0 mps 753 mmHg 78%
    08:00 +18°C° 0 mm 0 mps 753 mmHg 72%
    09:00 +22°C° 0 mm 1 mps 753 mmHg 66%
    10:00 +23°C° 0 mm 1 mps 753 mmHg 59%
    11:00 +24°C° 0 mm 1 mps 752 mmHg 57%
    12:00 +24°C° 0 mm 1 mps 752 mmHg 55%
    13:00 +25°C° 0 mm 2 mps 752 mmHg 52%
    14:00 +25°C° 0 mm 2 mps 752 mmHg 51%
    15:00 +25°C° 0 mm 2 mps 752 mmHg 51%
    16:00 +26°C° 0 mm 1 mps 752 mmHg 50%
    17:00 +25°C° 0 mm 1 mps 752 mmHg 54%
    18:00 +24°C° 0 mm 1 mps 751 mmHg 58%
    19:00 +22°C° 0 mm 0 mps 751 mmHg 63%
    20:00 +22°C° 0.3 mm 1 mps 752 mmHg 70%
    21:00 +21°C° 0.3 mm 1 mps 752 mmHg 77%
    22:00 +18°C° 0.3 mm 2 mps 752 mmHg 85%
    23:00 +19°C° 0.2 mm 1 mps 752 mmHg 87%

    Tomorrow, 19 July, Friday

    Time Temperature Precipitation Wind Pressure Humidity
    00:00 +18°C° 0.2 mm 1 mps 752 mmHg 89%
    01:00 +18°C° 0.2 mm 1 mps 752 mmHg 90%
    02:00 +18°C° 0.1 mm 1 mps 752 mmHg 91%
    03:00 +16°C° 0.1 mm 1 mps 753 mmHg 91%
    04:00 +16°C° 0.1 mm 1 mps 753 mmHg 92%
    05:00 +18°C° 0.1 mm 1 mps 753 mmHg 90%
    06:00 +19°C° 0.1 mm 1 mps 753 mmHg 88%
    07:00 +20°C° 0.1 mm 1 mps 753 mmHg 85%
    08:00 +20°C° 0.2 mm 2 mps 753 mmHg 81%
    09:00 +21°C° 0.2 mm 3 mps 753 mmHg 77%
    10:00 +22°C° 0.2 mm 3 mps 754 mmHg 73%
    11:00 +24°C° 0.1 mm 3 mps 753 mmHg 68%
    12:00 +25°C° 0.1 mm 4 mps 753 mmHg 63%
    13:00 +26°C° 0.1 mm 4 mps 753 mmHg 58%
    14:00 +26°C° 0.3 mm 3 mps 753 mmHg 59%
    15:00 +26°C° 0.3 mm 3 mps 753 mmHg 60%
    16:00 +26°C° 0.3 mm 3 mps 753 mmHg 61%
    17:00 +25°C° 0.3 mm 2 mps 753 mmHg 66%
    18:00 +24°C° 0.3 mm 1 mps 753 mmHg 70%
    19:00 +24°C° 0.3 mm 1 mps 753 mmHg 75%
    20:00 +22°C° 0 mm 1 mps 754 mmHg 79%
    21:00 +21°C° 0 mm 1 mps 754 mmHg 82%
    22:00 +19°C° 0 mm 1 mps 754 mmHg 86%
    23:00 +19°C° 0 mm 1 mps 754 mmHg 88%

    Day after tomorrow, 20 July, Saturday

    Time Temperature Precipitation Wind Pressure Humidity
    00:00 +18°C° 0 mm 1 mps 754 mmHg 89%
    01:00 +18°C° 0 mm 1 mps 754 mmHg 90%
    02:00 +18°C° 0 mm 1 mps 754 mmHg 91%
    03:00 +18°C° 0 mm 1 mps 754 mmHg 91%
    04:00 +18°C° 0 mm 1 mps 754 mmHg 91%
    05:00 +18°C° 0 mm 2 mps 754 mmHg 88%
    06:00 +18°C° 0 mm 2 mps 754 mmHg 86%
    07:00 +19°C° 0 mm 2 mps 754 mmHg 83%
    08:00 +21°C° 0 mm 2 mps 754 mmHg 75%
    09:00 +24°C° 0 mm 3 mps 754 mmHg 67%
    10:00 +26°C° 0 mm 3 mps 754 mmHg 58%
    11:00 +27°C° 0.2 mm 3 mps 753 mmHg 57%
    12:00 +27°C° 0.2 mm 4 mps 753 mmHg 56%
    13:00 +28°C° 0.2 mm 4 mps 753 mmHg 56%
    14:00 +28°C° 0.4 mm 4 mps 753 mmHg 56%
    15:00 +28°C° 0.4 mm 4 mps 753 mmHg 57%
    16:00 +28°C° 0.4 mm 4 mps 753 mmHg 58%
    17:00 +27°C° 0.4 mm 3 mps 753 mmHg 64%
    18:00 +26°C° 0.4 mm 2 mps 753 mmHg 69%
    19:00 +25°C° 0.4 mm 1 mps 753 mmHg 75%
    20:00 +24°C° 0.6 mm 1 mps 753 mmHg 78%
    21:00 +23°C° 0.6 mm 1 mps 754 mmHg 80%
    22:00 +22°C° 0.6 mm 1 mps 754 mmHg 83%
    23:00 +20°C° 0.3 mm 2 mps 754 mmHg 86%

    21 July, Sunday

    Time Temperature Precipitation Wind Pressure Humidity
    00:00 +19°C° 0.3 mm 2 mps 754 mmHg 88%
    01:00 +18°C° 0.3 mm 2 mps 754 mmHg 91%
    02:00 +18°C° 0.2 mm 2 mps 754 mmHg 92%
    03:00 +18°C° 0.2 mm 2 mps 754 mmHg 93%
    04:00 +17°C° 0.2 mm 2 mps 754 mmHg 93%
    05:00 +18°C° 0.1 mm 3 mps 755 mmHg 91%
    06:00 +19°C° 0.1 mm 4 mps 755 mmHg 89%
    07:00 +19°C° 0.1 mm 4 mps 755 mmHg 87%
    08:00 +20°C° 0 mm 5 mps 756 mmHg 81%
    09:00 +21°C° 0 mm 5 mps 756 mmHg 75%
    10:00 +23°C° 0 mm 5 mps 757 mmHg 69%
    11:00 +23°C° 0.1 mm 5 mps 757 mmHg 66%
    12:00 +25°C° 0.1 mm 5 mps 757 mmHg 63%
    13:00 +26°C° 0.1 mm 5 mps 757 mmHg 61%
    14:00 +26°C° 0.3 mm 5 mps 758 mmHg 62%
    15:00 +26°C° 0.3 mm 5 mps 758 mmHg 63%
    16:00 +26°C° 0.3 mm 5 mps 758 mmHg 63%
    17:00 +25°C° 0 mm 4 mps 758 mmHg 67%
    18:00 +25°C° 0 mm 3 mps 759 mmHg 71%
    19:00 +24°C° 0 mm 3 mps 759 mmHg 75%
    20:00 +21°C° 0 mm 2 mps 759 mmHg 81%
    21:00 +20°C° 0 mm 2 mps 760 mmHg 87%
    22:00 +18°C° 0 mm 2 mps 760 mmHg 93%
    23:00 +18°C° 0 mm 2 mps 760 mmHg 93%

    22 July, Monday

    Time Temperature Precipitation Wind Pressure Humidity
    00:00 +18°C° 0 mm 1 mps 761 mmHg 93%
    01:00 +16°C° 0 mm 1 mps 761 mmHg 94%
    02:00 +16°C° 0 mm 1 mps 761 mmHg 93%
    03:00 +14°C° 0 mm 0 mps 761 mmHg 93%
    04:00 +14°C° 0 mm 0 mps 761 mmHg 92%
    05:00 +15°C° 0 mm 0 mps 761 mmHg 88%
    06:00 +16°C° 0 mm 0 mps 761 mmHg 84%
    07:00 +17°C° 0 mm 0 mps 762 mmHg 80%
    08:00 +21°C° 0 mm 1 mps 762 mmHg 73%
    09:00 +23°C° 0 mm 1 mps 762 mmHg 66%
    10:00 +24°C° 0 mm 1 mps 762 mmHg 59%
    11:00 +25°C° 0 mm 1 mps 761 mmHg 56%
    12:00 +26°C° 0 mm 1 mps 761 mmHg 53%
    13:00 +27°C° 0 mm 2 mps 761 mmHg 50%
    14:00 +27°C° 0 mm 2 mps 761 mmHg 50%
    15:00 +27°C° 0 mm 2 mps 761 mmHg 50%
    16:00 +27°C° 0 mm 2 mps 760 mmHg 50%
    17:00 +27°C° 0 mm 2 mps 760 mmHg 55%
    18:00 +26°C° 0 mm 2 mps 760 mmHg 60%
    19:00 +25°C° 0 mm 2 mps 760 mmHg 65%
    20:00 +24°C° 0 mm 2 mps 760 mmHg 67%
    21:00 +21°C° 0 mm 2 mps 761 mmHg 70%
    22:00 +19°C° 0 mm 3 mps 761 mmHg 72%
    23:00 +19°C° 0 mm 3 mps 761 mmHg 74%

    23 July, Tuesday

    Time Temperature Precipitation Wind Pressure Humidity
    00:00 +18°C° 0 mm 3 mps 761 mmHg 76%
    01:00 +17°C° 0 mm 3 mps 761 mmHg 79%
    02:00 +17°C° 0 mm 3 mps 760 mmHg 80%
    03:00 +16°C° 0 mm 2 mps 760 mmHg 82%
    04:00 +16°C° 0 mm 2 mps 760 mmHg 84%
    05:00 +17°C° 0 mm 3 mps 760 mmHg 81%
    06:00 +18°C° 0 mm 3 mps 760 mmHg 78%
    07:00 +19°C° 0 mm 3 mps 760 mmHg 75%
    08:00 +21°C° 0 mm 3 mps 760 mmHg 70%
    09:00 +23°C° 0 mm 4 mps 760 mmHg 66%
    10:00 +25°C° 0 mm 4 mps 760 mmHg 62%
    11:00 +26°C° 0 mm 4 mps 759 mmHg 59%
    12:00 +27°C° 0 mm 4 mps 759 mmHg 56%
    13:00 +28°C° 0 mm 4 mps 759 mmHg 53%
    14:00 +29°C° 0 mm 4 mps 759 mmHg 52%
    15:00 +29°C° 0 mm 5 mps 758 mmHg 51%
    16:00 +29°C° 0 mm 5 mps 758 mmHg 50%
    17:00 +28°C° 0 mm 4 mps 758 mmHg 53%
    18:00 +27°C° 0 mm 4 mps 758 mmHg 56%
    19:00 +26°C° 0 mm 3 mps 758 mmHg 59%
    20:00 +24°C° 0 mm 3 mps 758 mmHg 60%
    21:00 +21°C° 0 mm 3 mps 758 mmHg 61%
    22:00 +20°C° 0 mm 2 mps 758 mmHg 63%
    23:00 +19°C° 0 mm 2 mps 758 mmHg 66%
    Show more